SVA035 OEJN-KIAD

Flight info

Callsign SVA035
Flight time N/A
Altitude 32000
Route BOMOX M686 OTEMO T55 KUNKI P751 METRU/N0488F340 UP868 ARLOS/N0502F300 M871 EVLIB T340 LEVDI/N0487F340 DCT UNIXO DCT POKAV DCT ABIDU/N0483F350 DCT EPIKU/N0488F340 DCT GINOX DCT KIFMI DCT ELVOP DCT MUREN/N0486F350 M601 BCN N725 SUSOS/N0493F360 DCT STG DCT PETEK/N0483F350 DCT ARMED/M084F360 DCT 41N020W 41N025W 41N030W 3930N04000W/M084F380 39N050W DCT SOORY DCT SLATN/N0480F400 R56 LINND DCT OWENZ Y481 DIXIE DCT RBV HYPER9
Aircraft B77W/H-SDE2E3FGHIRWXY/L

Departure

Time N/A
Airport King Abdulaziz International Airport (OEJN)

Arrival

Time 2026-05-05 12:07
Airport Washington Dulles International Airport (KIAD)
Time Latitude Longitude Altitude Speed Heading
2026-05-05 11:05 39.39410 -71.34651 38073 ft 450 kts 272°
2026-05-05 11:05 39.39653 -71.40063 38071 ft 450 kts 272°
2026-05-05 11:06 39.39951 -71.46772 38065 ft 450 kts 272°
2026-05-05 11:06 39.40306 -71.54843 38074 ft 450 kts 272°
2026-05-05 11:07 39.40655 -71.62933 38064 ft 450 kts 272°
2026-05-05 11:07 39.41592 -71.70937 38072 ft 452 kts 283°
2026-05-05 11:08 39.43730 -71.78595 38068 ft 455 kts 293°
2026-05-05 11:08 39.46493 -71.85937 38058 ft 455 kts 294°
2026-05-05 11:09 39.49294 -71.93295 38061 ft 456 kts 294°
2026-05-05 11:09 39.52066 -72.00677 38048 ft 456 kts 294°
2026-05-05 11:10 39.54818 -72.08079 38049 ft 456 kts 293°
2026-05-05 11:10 39.57554 -72.15471 38046 ft 456 kts 293°
2026-05-05 11:11 39.60280 -72.22851 38033 ft 453 kts 293°
2026-05-05 11:11 39.62991 -72.30206 38001 ft 460 kts 293°
2026-05-05 11:12 39.65788 -72.37821 37566 ft 478 kts 293°
2026-05-05 11:12 39.67218 -72.41718 37016 ft 484 kts 293°
2026-05-05 11:12 39.68658 -72.45638 36326 ft 480 kts 294°
2026-05-05 11:12 39.70090 -72.49525 35574 ft 476 kts 294°
2026-05-05 11:13 39.71509 -72.53388 34915 ft 471 kts 293°
2026-05-05 11:13 39.72909 -72.57215 34170 ft 469 kts 294°
2026-05-05 11:13 39.74303 -72.61044 33157 ft 471 kts 294°
2026-05-05 11:13 39.75710 -72.64918 31986 ft 476 kts 293°
2026-05-05 11:14 39.77113 -72.68782 30794 ft 482 kts 293°
2026-05-05 11:14 39.78563 -72.72780 29902 ft 481 kts 293°
2026-05-05 11:14 39.79983 -72.76691 29092 ft 476 kts 293°
2026-05-05 11:14 39.81367 -72.80512 28414 ft 469 kts 292°
2026-05-05 11:15 39.82604 -72.84440 28142 ft 465 kts 287°
2026-05-05 11:15 39.83516 -72.88420 28012 ft 463 kts 283°
2026-05-05 11:15 39.84346 -72.92439 28009 ft 459 kts 283°
2026-05-05 11:16 39.85999 -73.00417 28002 ft 456 kts 283°
2026-05-05 11:16 39.87667 -73.08366 27999 ft 454 kts 283°
2026-05-05 11:16 39.88499 -73.12324 27850 ft 451 kts 283°
2026-05-05 11:17 39.89316 -73.16205 27234 ft 448 kts 283°
2026-05-05 11:17 39.90136 -73.20100 26524 ft 445 kts 283°
2026-05-05 11:17 39.90936 -73.23906 26371 ft 431 kts 283°
2026-05-05 11:17 39.91722 -73.27655 26221 ft 437 kts 283°
2026-05-05 11:18 39.92529 -73.31522 26079 ft 444 kts 283°
2026-05-05 11:18 39.93339 -73.35413 25917 ft 444 kts 283°
2026-05-05 11:18 39.94143 -73.39272 25762 ft 440 kts 283°
2026-05-05 11:18 39.94942 -73.43108 25605 ft 437 kts 283°
2026-05-05 11:19 39.95733 -73.46918 25455 ft 434 kts 283°
2026-05-05 11:19 39.96514 -73.50689 25311 ft 432 kts 283°
2026-05-05 11:19 39.97295 -73.54469 25165 ft 431 kts 283°
2026-05-05 11:19 39.98066 -73.58202 25008 ft 430 kts 283°
2026-05-05 11:20 39.98835 -73.61934 24866 ft 429 kts 283°
2026-05-05 11:20 39.99609 -73.65697 24730 ft 429 kts 283°
2026-05-05 11:20 40.00377 -73.69440 24587 ft 428 kts 283°
2026-05-05 11:20 40.01145 -73.73188 24429 ft 427 kts 283°
2026-05-05 11:21 40.01909 -73.76924 24276 ft 426 kts 283°
2026-05-05 11:21 40.02672 -73.80660 24128 ft 425 kts 283°
2026-05-05 11:21 40.03431 -73.84383 23981 ft 424 kts 283°
2026-05-05 11:21 40.04186 -73.88092 23837 ft 422 kts 283°
2026-05-05 11:22 40.04937 -73.91791 23685 ft 421 kts 283°
2026-05-05 11:22 40.05683 -73.95472 23530 ft 419 kts 283°
2026-05-05 11:22 40.06423 -73.99129 23350 ft 418 kts 283°
2026-05-05 11:22 40.07163 -74.02793 23222 ft 415 kts 283°
2026-05-05 11:23 40.07892 -74.06401 23066 ft 412 kts 283°
2026-05-05 11:23 40.08610 -74.09966 22922 ft 409 kts 283°
2026-05-05 11:23 40.09328 -74.13538 22780 ft 406 kts 283°
2026-05-05 11:23 40.10104 -74.17064 22636 ft 405 kts 287°
2026-05-05 11:24 40.11133 -74.20499 22497 ft 404 kts 290°
2026-05-05 11:24 40.12206 -74.23864 22374 ft 403 kts 290°
2026-05-05 11:24 40.13273 -74.27229 22200 ft 403 kts 290°
2026-05-05 11:24 40.14340 -74.30626 22032 ft 403 kts 290°
2026-05-05 11:25 40.15392 -74.33995 21877 ft 404 kts 290°
2026-05-05 11:25 40.16443 -74.37376 21734 ft 403 kts 290°
2026-05-05 11:25 40.17492 -74.40751 21445 ft 399 kts 290°
2026-05-05 11:25 40.18532 -74.44103 20904 ft 395 kts 289°
2026-05-05 11:26 40.19550 -74.47400 20289 ft 391 kts 289°
2026-05-05 11:26 40.20407 -74.50743 19792 ft 384 kts 283°
2026-05-05 11:26 40.20977 -74.54094 19649 ft 374 kts 279°
2026-05-05 11:26 40.21503 -74.57460 19505 ft 381 kts 280°
2026-05-05 11:27 40.22045 -74.60879 19339 ft 387 kts 280°
2026-05-05 11:27 40.22596 -74.64332 19179 ft 386 kts 280°
2026-05-05 11:27 40.23145 -74.67759 19009 ft 384 kts 280°
2026-05-05 11:27 40.23689 -74.71144 18857 ft 382 kts 280°
2026-05-05 11:28 40.24229 -74.74519 18687 ft 380 kts 280°
2026-05-05 11:28 40.24763 -74.77858 18536 ft 379 kts 280°
2026-05-05 11:28 40.25307 -74.81270 18373 ft 377 kts 280°
2026-05-05 11:28 40.25835 -74.84585 18217 ft 376 kts 280°
2026-05-05 11:29 40.26365 -74.87926 18032 ft 376 kts 280°
2026-05-05 11:29 40.26862 -74.91052 17892 ft 375 kts 280°
2026-05-05 11:29 40.27404 -74.94380 17724 ft 374 kts 280°
2026-05-05 11:29 40.27926 -74.97559 17570 ft 373 kts 280°
2026-05-05 11:30 40.28482 -75.00934 17423 ft 372 kts 280°
2026-05-05 11:30 40.29020 -75.04218 17274 ft 371 kts 280°
2026-05-05 11:30 40.29560 -75.07519 17140 ft 370 kts 280°
2026-05-05 11:30 40.30098 -75.10820 16979 ft 370 kts 280°
2026-05-05 11:31 40.30627 -75.14073 16818 ft 370 kts 280°
2026-05-05 11:31 40.31159 -75.17358 16683 ft 369 kts 280°
2026-05-05 11:31 40.31686 -75.20613 16520 ft 369 kts 280°
2026-05-05 11:31 40.32203 -75.23813 16375 ft 368 kts 280°
2026-05-05 11:32 40.32732 -75.27092 16226 ft 367 kts 280°
2026-05-05 11:32 40.33257 -75.30359 16075 ft 366 kts 279°
2026-05-05 11:32 40.33777 -75.33596 15919 ft 365 kts 279°
2026-05-05 11:32 40.34303 -75.36876 15761 ft 364 kts 279°
2026-05-05 11:33 40.34820 -75.40108 15620 ft 363 kts 279°
2026-05-05 11:33 40.35335 -75.43338 15476 ft 362 kts 279°
2026-05-05 11:33 40.35849 -75.46562 15323 ft 361 kts 279°
2026-05-05 11:33 40.36359 -75.49763 15164 ft 360 kts 279°
2026-05-05 11:34 40.36868 -75.52971 15010 ft 358 kts 279°
2026-05-05 11:34 40.37368 -75.56122 14861 ft 357 kts 279°
2026-05-05 11:34 40.37675 -75.59301 14706 ft 350 kts 268°
2026-05-05 11:34 40.37409 -75.62441 14573 ft 348 kts 258°
2026-05-05 11:35 40.36745 -75.65493 14420 ft 348 kts 248°
2026-05-05 11:35 40.35703 -75.68351 14286 ft 349 kts 244°
2026-05-05 11:35 40.34598 -75.71172 14139 ft 349 kts 243°
2026-05-05 11:35 40.33483 -75.73994 14002 ft 349 kts 243°
2026-05-05 11:36 40.32368 -75.76825 13836 ft 349 kts 244°
2026-05-05 11:36 40.31262 -75.79653 13697 ft 349 kts 243°
2026-05-05 11:36 40.30165 -75.82471 13533 ft 348 kts 243°
2026-05-05 11:36 40.29070 -75.85287 13372 ft 347 kts 243°
2026-05-05 11:37 40.27983 -75.88088 13219 ft 346 kts 243°
2026-05-05 11:37 40.26896 -75.90892 13060 ft 345 kts 243°
2026-05-05 11:37 40.25814 -75.93683 12917 ft 343 kts 243°
2026-05-05 11:37 40.24736 -75.96464 12772 ft 342 kts 243°
2026-05-05 11:38 40.23664 -75.99226 12650 ft 338 kts 243°
2026-05-05 11:38 40.22603 -76.01956 12506 ft 339 kts 243°
2026-05-05 11:38 40.21530 -76.04717 12357 ft 342 kts 243°
2026-05-05 11:38 40.20449 -76.07494 12215 ft 342 kts 243°
2026-05-05 11:39 40.19373 -76.10257 12071 ft 341 kts 243°
2026-05-05 11:39 40.18297 -76.13016 11930 ft 340 kts 243°
2026-05-05 11:39 40.17232 -76.15747 11797 ft 339 kts 243°
2026-05-05 11:39 40.16153 -76.18509 11643 ft 339 kts 243°
2026-05-05 11:40 40.15083 -76.21248 11513 ft 338 kts 243°
2026-05-05 11:40 40.14014 -76.23982 11373 ft 338 kts 243°
2026-05-05 11:40 40.12941 -76.26720 11228 ft 338 kts 243°
2026-05-05 11:40 40.11856 -76.29442 11085 ft 338 kts 241°
2026-05-05 11:41 40.10672 -76.32096 10944 ft 338 kts 239°
2026-05-05 11:41 40.09460 -76.34698 10793 ft 330 kts 238°
2026-05-05 11:41 40.08286 -76.37207 10647 ft 317 kts 239°
2026-05-05 11:41 40.07167 -76.39614 10505 ft 305 kts 239°
2026-05-05 11:42 40.06088 -76.41945 10371 ft 293 kts 239°
2026-05-05 11:42 40.05059 -76.44169 10249 ft 282 kts 239°
2026-05-05 11:42 40.04061 -76.46328 10140 ft 272 kts 239°
2026-05-05 11:42 40.03100 -76.48405 10029 ft 262 kts 238°
2026-05-05 11:43 40.02174 -76.50405 9915 ft 253 kts 238°
2026-05-05 11:43 40.01273 -76.52349 9805 ft 248 kts 238°
2026-05-05 11:43 40.00379 -76.54278 9717 ft 249 kts 238°
2026-05-05 11:43 39.99482 -76.56210 9618 ft 252 kts 239°
2026-05-05 11:44 39.98576 -76.58167 9509 ft 253 kts 239°
2026-05-05 11:44 39.97658 -76.60139 9410 ft 254 kts 239°
2026-05-05 11:44 39.96743 -76.62107 9307 ft 255 kts 239°
2026-05-05 11:44 39.95827 -76.64076 9176 ft 252 kts 239°
2026-05-05 11:45 39.94930 -76.66002 9078 ft 248 kts 239°
2026-05-05 11:45 39.94039 -76.67913 9004 ft 246 kts 239°
2026-05-05 11:45 39.93151 -76.69820 8975 ft 246 kts 239°
2026-05-05 11:45 39.92268 -76.71714 8959 ft 248 kts 239°
2026-05-05 11:46 39.91375 -76.73626 8962 ft 249 kts 239°
2026-05-05 11:46 39.90482 -76.75541 8959 ft 250 kts 239°
2026-05-05 11:46 39.89578 -76.77476 8957 ft 250 kts 239°
2026-05-05 11:46 39.88674 -76.79412 8951 ft 250 kts 239°
2026-05-05 11:47 39.87773 -76.81339 8956 ft 250 kts 239°
2026-05-05 11:47 39.86865 -76.83281 8954 ft 250 kts 239°
2026-05-05 11:47 39.85965 -76.85207 8950 ft 249 kts 239°
2026-05-05 11:47 39.85063 -76.87131 8968 ft 248 kts 239°
2026-05-05 11:48 39.83571 -76.90308 8960 ft 247 kts 239°
2026-05-05 11:48 39.82665 -76.92240 8980 ft 246 kts 239°
2026-05-05 11:48 39.81777 -76.94136 8971 ft 246 kts 239°
2026-05-05 11:49 39.80897 -76.96009 8967 ft 245 kts 239°
2026-05-05 11:49 39.80007 -76.97902 8975 ft 245 kts 239°
2026-05-05 11:49 39.79108 -76.99814 8987 ft 245 kts 239°
2026-05-05 11:49 39.78230 -77.01679 8990 ft 245 kts 239°
2026-05-05 11:50 39.77338 -77.03572 8985 ft 246 kts 239°
2026-05-05 11:50 39.76433 -77.05493 8984 ft 246 kts 239°
2026-05-05 11:50 39.75541 -77.07384 8957 ft 245 kts 239°
2026-05-05 11:50 39.74664 -77.09243 8730 ft 244 kts 239°
2026-05-05 11:51 39.73778 -77.11119 8411 ft 243 kts 239°
2026-05-05 11:51 39.72893 -77.12992 8079 ft 243 kts 240°
2026-05-05 11:51 39.72002 -77.14879 7774 ft 241 kts 240°
2026-05-05 11:51 39.71129 -77.16726 7490 ft 239 kts 240°
2026-05-05 11:52 39.70270 -77.18539 7181 ft 239 kts 240°
2026-05-05 11:52 39.69392 -77.20394 6896 ft 237 kts 241°
2026-05-05 11:52 39.68526 -77.22210 6601 ft 235 kts 239°
2026-05-05 11:52 39.67448 -77.23812 6320 ft 236 kts 228°
2026-05-05 11:53 39.66241 -77.25235 6059 ft 234 kts 227°
2026-05-05 11:53 39.65032 -77.26635 5810 ft 231 kts 227°
2026-05-05 11:53 39.63848 -77.28017 5672 ft 227 kts 227°
2026-05-05 11:53 39.62694 -77.29381 5594 ft 231 kts 227°
2026-05-05 11:54 39.61483 -77.30826 5489 ft 234 kts 227°
2026-05-05 11:54 39.60281 -77.32261 5391 ft 235 kts 227°
2026-05-05 11:54 39.59080 -77.33699 5296 ft 236 kts 227°
2026-05-05 11:54 39.57875 -77.35141 5203 ft 235 kts 227°
2026-05-05 11:55 39.56583 -77.36411 5093 ft 237 kts 211°
2026-05-05 11:55 39.54966 -77.36964 5023 ft 250 kts 195°
2026-05-05 11:55 39.53213 -77.37275 5022 ft 253 kts 194°
2026-05-05 11:55 39.51492 -77.37534 5005 ft 253 kts 193°
2026-05-05 11:56 39.49720 -77.37791 4895 ft 256 kts 193°
2026-05-05 11:56 39.47968 -77.38085 4616 ft 248 kts 195°
2026-05-05 11:56 39.46286 -77.38409 4554 ft 246 kts 195°
2026-05-05 11:56 39.44573 -77.38747 4463 ft 249 kts 195°
2026-05-05 11:57 39.42864 -77.39076 4399 ft 250 kts 195°
2026-05-05 11:57 39.41728 -77.39292 4348 ft 248 kts 194°
2026-05-05 11:57 39.39173 -77.39771 4050 ft 250 kts 194°
2026-05-05 11:57 39.37504 -77.40076 3982 ft 243 kts 194°
2026-05-05 11:58 39.35862 -77.40372 3812 ft 233 kts 194°
2026-05-05 11:58 39.34316 -77.40649 3754 ft 215 kts 194°
2026-05-05 11:58 39.32888 -77.40917 3631 ft 200 kts 198°
2026-05-05 11:58 39.31563 -77.41271 3524 ft 191 kts 200°
2026-05-05 11:59 39.30298 -77.41697 3466 ft 187 kts 203°
2026-05-05 11:59 39.29066 -77.42151 3402 ft 189 kts 203°
2026-05-05 11:59 39.27774 -77.42633 3321 ft 188 kts 203°
2026-05-05 11:59 39.26519 -77.43107 3254 ft 188 kts 204°
2026-05-05 12:00 39.25261 -77.43589 3155 ft 189 kts 204°
2026-05-05 12:00 39.23998 -77.44063 3109 ft 188 kts 203°
2026-05-05 12:00 39.22743 -77.44540 3062 ft 188 kts 203°
2026-05-05 12:00 39.21490 -77.45018 2996 ft 187 kts 203°
2026-05-05 12:01 39.20221 -77.45383 3025 ft 192 kts 195°
2026-05-05 12:01 39.18888 -77.45535 3013 ft 193 kts 191°
2026-05-05 12:01 39.17625 -77.45585 2992 ft 169 kts 189°
2026-05-05 12:01 39.16514 -77.45615 3010 ft 157 kts 190°
2026-05-05 12:02 39.15413 -77.45636 3032 ft 159 kts 189°
2026-05-05 12:02 39.14308 -77.45653 3015 ft 156 kts 189°
2026-05-05 12:02 39.13232 -77.45671 3037 ft 155 kts 190°
2026-05-05 12:02 39.12145 -77.45692 3009 ft 161 kts 190°
2026-05-05 12:03 39.11009 -77.45711 3002 ft 166 kts 189°
2026-05-05 12:03 39.09855 -77.45728 2767 ft 163 kts 188°
2026-05-05 12:03 39.08734 -77.45742 2549 ft 160 kts 189°
2026-05-05 12:03 39.07625 -77.45762 2371 ft 160 kts 189°
2026-05-05 12:04 39.06525 -77.45780 2136 ft 156 kts 187°
2026-05-05 12:04 39.05476 -77.45797 1922 ft 145 kts 188°
2026-05-05 12:04 39.04473 -77.45811 1761 ft 145 kts 189°
2026-05-05 12:04 39.03474 -77.45825 1561 ft 142 kts 187°
2026-05-05 12:05 39.02507 -77.45842 1368 ft 138 kts 187°
2026-05-05 12:05 39.01538 -77.45859 1186 ft 140 kts 185°
2026-05-05 12:05 39.00561 -77.45874 1013 ft 140 kts 184°
2026-05-05 12:05 38.99612 -77.45908 790 ft 134 kts 182°
2026-05-05 12:06 38.98685 -77.45907 657 ft 134 kts 183°
2026-05-05 12:06 38.97744 -77.45932 465 ft 137 kts 183°
2026-05-05 12:06 38.96810 -77.45943 304 ft 133 kts 182°
2026-05-05 12:06 38.95980 -77.45954 296 ft 96 kts 180°
2026-05-05 12:07 38.95500 -77.45957 299 ft 47 kts 181°
2026-05-05 12:07 38.95219 -77.45963 297 ft 23 kts 179°
2026-05-05 12:07 38.95064 -77.45935 297 ft 23 kts 164°
2026-05-05 12:07 38.94928 -77.45858 298 ft 17 kts 149°
2026-05-05 12:08 38.94868 -77.45813 298 ft 8 kts 151°
2026-05-05 12:08 38.94839 -77.45793 301 ft 0 kts 152°
2026-05-05 12:08 38.94834 -77.45789 300 ft 1 kts 152°
2026-05-05 12:08 38.94825 -77.45784 299 ft 2 kts 152°
2026-05-05 12:09 38.94813 -77.45775 298 ft 3 kts 153°
2026-05-05 12:09 38.94777 -77.45756 300 ft 14 kts 159°
2026-05-05 12:09 38.94652 -77.45723 299 ft 19 kts 180°
2026-05-05 12:09 38.94482 -77.45725 302 ft 16 kts 180°
2026-05-05 12:10 38.94429 -77.45709 299 ft 9 kts 136°
2026-05-05 12:10 38.94422 -77.45630 300 ft 10 kts 90°
2026-05-05 12:10 38.94421 -77.45541 300 ft 10 kts 90°
2026-05-05 12:10 38.94421 -77.45445 300 ft 11 kts 90°
2026-05-05 12:11 38.94427 -77.45363 302 ft 6 kts 56°
2026-05-05 12:11 38.94466 -77.45347 300 ft 6 kts
2026-05-05 12:11 38.94483 -77.45343 299 ft 0 kts
2026-05-05 12:11 38.94486 -77.45343 299 ft 0 kts